Regional Weather Roundup
Issued by NWS Upton, NY

Current Version | Previous Version | Graphics & Text | Print | Product List | Glossary Off
Versions: 1 2 3 4 5 6 7 8 9 10 11 12 13 14 15 16 17 18 19 20 21 22 23 24 25 26 27

000
ASUS41 KOKX 180508
RWROKX

REGIONAL WEATHER ROUNDUP
NATIONAL WEATHER SERVICE NEW YORK NY
1200 AM EST WED JAN 18 2017

NOTE: "FAIR" INDICATES FEW OR NO CLOUDS BELOW 12,000 FEET WITH NO
SIGNIFICANT WEATHER AND/OR OBSTRUCTIONS TO VISIBILITY.

NYZ071-072-176-178-NJZ106-104-180600-
NEW YORK CITY METRO AREA

CITY           SKY/WX    TMP DP  RH WIND       PRES   REMARKS
Central Park   LGT RAIN  38  37  97 VRB5      29.98F FOG     WCI  34
Wall St Helipt CLOUDY    40  38  93 NE13      29.96S WCI  32
Bronx Bot Gard NOT AVBL
LaGuardia APRT DRIZZLE   39  37  92 NE13      29.97F FOG     WCI  31
Kennedy INTL   DRIZZLE   41  38  89 N10       29.96F FOG
Breezy Point     N/A     39 N/A N/A NE9G15      N/A  WCI  33
Newark/Liberty LGT RAIN  39  38  96 N10       29.96F FOG     WCI  32
Teterboro      DRIZZLE   39  37  92 NE5       29.95F FOG
$$

NYZ177-179-078>081-180600-
LONG ISLAND NEW YORK

CITY           SKY/WX    TMP DP  RH WIND       PRES   REMARKS
Jones Beach      N/A     41 N/A N/A NE14        N/A
Matinecock PT  NOT AVBL
Farmingdale    CLOUDY    40  39  97 NE7       29.95F FOG
MacArthur/ISP  CLOUDY    40  40 100 NE6       29.95F FOG
Shirley        CLOUDY    41  41 100 CALM      29.96F FOG
Westhampton    LGT RAIN  43  41  93 E8        29.95F FOG
Southampton    NOT AVBL
Bridgehampton  NOT AVBL
East Hampton   CLOUDY    41  40  95 E9        29.96F FOG
Montauk          N/A     42  41  96 E7        30.00F
$$

NYZ052-065-067-180600-
HUDSON VALLEY

CITY           SKY/WX    TMP DP  RH WIND       PRES   REMARKS
White Plains   LGT RAIN  36  35  96 NE6       29.96S FOG     WCI  31
Newburgh       LGT RAIN  34  34 100 NE7       29.99F FOG     WCI  28
Montgomery     LGT RAIN  34  32  92 NE8       29.95F FOG     WCI  27
Poughkeepsie   CLOUDY    32  32 100 N6        29.99F FOG     WCI  26
Albany         LGT RAIN  34  31  88 S7        29.99F FOG     WCI  28
$$

NJZ001-105-106-008-010-013-015-019>022-104-180600-
NEW JERSEY

CITY           SKY/WX    TMP DP  RH WIND       PRES   REMARKS
Newark/Liberty LGT RAIN  39  38  96 N10       29.96F FOG     WCI  32
Teterboro      DRIZZLE   39  37  92 NE5       29.95F FOG
Caldwell       LGT RAIN  37  36  96 NE5       29.96F FOG     WCI  33
Somerville     CLOUDY    39  37  92 NE5       29.93F FOG
Linden         DRIZZLE   39  37  93 NE9       29.95F WCI  33
Sussex         CLOUDY    34  33  96 NE9       29.94F WCI  27
Andover          N/A     33  32  96 CALM      29.91F
Trenton        FOG       41  41 100 NE7       29.92F VSB 1
Millville      FOG       45  45 100 SE3       29.88F VSB 1/2
Atlantic City  FOG       46  45  96 CALM      29.89F VSB 1/2
Wrightstown    CLOUDY    43  43 100 N5        29.89F FOG
Toms River     LGT RAIN  44  44 100 CALM      29.91F VSB 1/2
Belmar         FOG       45  45 100 CALM      29.93F VSB 1/4
$$

PAZ047>061-062-071-180600-
EASTERN PENNSYLVANIA

CITY           SKY/WX    TMP DP  RH WIND       PRES   REMARKS
Philadelphia   FOG       43  42  97 NE6       29.92F VSB 1
Allentown      CLOUDY    38  35  89 NE9       29.93F FOG     WCI  31
Scranton       CLOUDY    37  36  96 VRB5      29.89F WCI  33
$$

CTZ002-004>006-009-010-012-RIZ004-006-007-MAZ004-011-015-180600-
SOUTHERN NEW ENGLAND
 IN CT

CITY           SKY/WX    TMP DP  RH WIND       PRES   REMARKS
Bradley INTL   DRIZZLE   34  33  96 N5        30.04F FOG     WCI  30
Hartford       CLOUDY    35  34  96 N7        30.02F FOG     WCI  29
Danbury        LGT RAIN  34  32  92 NE6       29.99F FOG     WCI  29
Wtrbury/Oxford CLOUDY    34  30  86 NE8       29.99S WCI  27
Bridgeport     CLOUDY    39  35  86 NE10      29.99F FOG     WCI  32
Meriden        CLOUDY    37  33  85 CALM      30.00F FOG
New Haven      CLOUDY    38  36  92 NE7       29.99F WCI  33
Chester        CLOUDY    36  36 100 E7        29.98F FOG     WCI  30
Groton         LGT RAIN  40  38  93 E10       29.99F WCI  33
Wilimantic     CLOUDY    39  36  89 NE5       30.03F

 IN RI

CITY           SKY/WX    TMP DP  RH WIND       PRES   REMARKS
Providence     LGT RAIN  39  37  92 E7        30.06F FOG     WCI  34
Block Island   NOT AVBL
Westerly       LGT RAIN  41  37  86 E10       30.01F
 IN MA

CITY           SKY/WX    TMP DP  RH WIND       PRES   REMARKS
Boston         LGT RAIN  37  36  96 E15       30.10F FOG     WCI  28
Worcester      SNOW      31  30  96 E8        30.02F VSB 1/4 WCI  23
Westfield      LGT RAIN  33  33 100 N5        30.04F FOG     WCI  29
Provincetown   LGT RAIN  37  36  96 E13       30.09S WCI  29
Nantucket      CLOUDY    41  38  89 E21G28    30.03F
$$

ANZ330-335-338-340-345-350-353-355-180600-
COASTAL MARINE OBSERVATIONS


STATION/POSITION TIME  SKY/WX   TEMP    WIND        PRES    VSBY  WAVE
                                AIR SEA DIR/SP/G                  HT/PER
                 (UTC)          (F)     (DEG/KT/KT) (MB)    (MI)  (FT/S)
NY HARB ENTRANCE 0350            44 44   90/ 10/ 12 1014.2          2/ 4
20 S FIRE ISLAND 0450            47 45  110/ 12/ 14 1012.8          3/ 4
GREAT SOUTH BAY  NOT AVBL
23 SSW MONTAUK P 0450            46 48  120/ 19/ 23 1014.5          4/ 4
15 E BARNEGAT LI 0430               42                N/A           2/ 4
HUDSON CANYON    0450            53 53              1013.0          3/ 4
KINGS POINT      0448            38 38              1014.3
EXECUTION ROCKS  0445            38      50/ 16/ 19   N/A
CENTRAL LI SOUND 0430            40      90/ 16/ 19   N/A           2/ 4
EASTERN LI SOUND NOT AVBL
ROBBINS REEF     0448            40      10/  9/ 10 1014.5
$$


>>>>>>>>>>>>>>>>>>>>>>>>>>>> KEY <<<<<<<<<<<<<<<<<<<<<<<<<<<
>                                                          <
>     SKY/WX - Sky Condition/Present Weather               <
>     TMP    - Temperature in Fahrenheit                   <
>     DP     - Dew Point in Fahrenheit                     <
>     RH     - Relative Humidity in Percent                <
>     WIND   - Direction (from) and Speed in MPH           <
>     PRES   - Mean Sea Level Pressure (inches of Hg)      <
>     WCI    - Wind Chill Index                            <
>     VSB    - VISIBILITY IN MILES                         <
>     HX     - HEAT INDEX                                  <
>     TC     - TEMPERATURE IN CELSIUS                      <
>     VRB    - VARIABLE WIND DIRECTION                     <
>                                                          <
>>>>>>>>>>>>>>>>>>>>>>>>>>>> KEY <<<<<<<<<<<<<<<<<<<<<<<<<<<




USA.gov is the U.S. government's official web portal to all federal, state and local government web resources and services.